This is the latest recevied weather packets stored in our database for station/object WX8ASH-13. If no packets are shown the sender has not sent any weather packets the latest 1 day(s).
| Time | Temp. | Humidity | Pressure | Rain* | Wind** | Luminosity | Snow |
|---|---|---|---|---|---|---|---|
| 1778043932 | 8.89° C | 99% | 1008.9 hPa | 1.52 mm | - | - | - |
| 1778043639 | 8.89° C | 99% | 1008.9 hPa | 1.52 mm | - | - | - |
| 1778043332 | 8.89° C | 99% | 1008.8 hPa | 1.27 mm | - | - | - |
| 1778043031 | 8.89° C | 99% | 1009 hPa | 1.78 mm | - | - | - |
| 1778042732 | 8.89° C | 99% | 1008.7 hPa | 1.78 mm | - | - | - |
| 1778042437 | 8.89° C | 99% | 1008.8 hPa | 1.78 mm | - | - | - |
| 1778042131 | 8.89° C | 99% | 1008.8 hPa | 2.03 mm | - | - | - |
| 1778041536 | 8.89° C | 99% | 1008.8 hPa | 1.78 mm | - | - | - |
| 1778041231 | 9.44° C | 99% | 1008.8 hPa | 1.27 mm | - | - | - |
| 1778040931 | 8.89° C | 99% | 1008.9 hPa | 1.27 mm | - | - | - |
| 1778039730 | 9.44° C | 99% | 1008.9 hPa | 1.02 mm | - | - | - |
| 1778039432 | 9.44° C | 99% | 1009 hPa | 0.51 mm | - | - | - |
| 1778038830 | 9.44° C | 99% | 1009.2 hPa | 0.25 mm | - | - | - |
| 1778038532 | 9.44° C | 99% | 1009.1 hPa | 0 mm | - | - | - |
| 1778038229 | 9.44° C | 99% | 1009.3 hPa | 0 mm | - | - | - |
| 1778037629 | 9.44° C | 99% | 1009.4 hPa | 0.25 mm | - | - | - |
| 1778037329 | 9.44° C | 99% | 1009.6 hPa | 0.25 mm | - | - | - |
| 1778037035 | 9.44° C | 99% | 1009.6 hPa | 0.76 mm | - | - | - |
| 1778036728 | 9.44° C | 99% | 1009.7 hPa | 1.02 mm | - | - | - |
| 1778036430 | 9.44° C | 99% | 1009.8 hPa | 1.27 mm | - | - | - |
| 1778036130 | 9.44° C | 99% | 1009.8 hPa | 1.52 mm | - | - | - |
| 1778035828 | 9.44° C | 99% | 1009.8 hPa | 1.78 mm | - | - | - |
| 1778035531 | 9.44° C | 99% | 1009.7 hPa | 1.78 mm | - | - | - |
| 1778035228 | 9.44° C | 99% | 1009.7 hPa | 2.03 mm | - | - | - |
| 1778034927 | 10° C | 99% | 1009.6 hPa | 2.03 mm | - | - | - |
* Rain latest hour (hover to see other rain measurements)
** Current wind speed in m/s (hover to see current wind gust speed)